STARLINK-32149, 60292

Orbit data source: Space-Track

STARLINK-32149, 60292 is a payload satellite owned by SpaceX/Seattle (US) in LEO that was launched on Sun, 28 Jul 2024 UTC via an FALCON 9 launch vehicle from the Air Force Eastern Test Range (AFETR). Payloads include a variety of satellites, spacecraft, and rockets equipped with specific instruments for various scientific and technological missions. These include communications satellites like Starlink; space stations such as the ISS; scientific satellites like the Hubble; Earth observation satellites from companies like Planet Labs, Umbra, and HawkEye 360; GPS; miniature CubeSats for education and research; and military/defense satellites.

Loading next visibility...
STARLINK-32149 details
Identifier
60292, 2024-132Q
Orbit
LEO
Last TLE update15 hours ago
Origin
Flag of USSpaceX/Seattle (US)
ManufacturerSpaceX/Seattle
MissionOperational spacecraft
Bus & MotorSTARLINK V2M, Unknown motor
Mass730 kg wet, ~700 kg dry
Launch date (UTC)
2024-07-28 (5 months ago)
Launch vehicle
FALCON 9
Launch site
Air Force Eastern Test Range (AFETR)
Object type
Payload
Rocket body
Debris
Shape & HBRUnknown
Radar Cross SectionLarge (>1 m²)

Expand to show TLE details & history

TLE from 15 hours ago
0 STARLINK-32149
1 60292U 24132Q   24355.91210915  .00003866  00000-0  14256-3 0  9992
2 60292  53.1621 313.9071 0001371  95.0013 265.1144 15.30205084 23616
Epoch: 2024-12-20T21:53Z
Definitive object data (Epoch: 2024-12-20T21:53:26.23Z)
Latitude-0.00005°
Longitude-104.42305°
Altitude476.18 km
Speed7.629 km/s
True Right ascension20h 55m 37s
True Declination0° 00' 00"
Sunlit
Object was in daylight at TLE epoch
Visualization TLE readout
Latitude-43.01456°
Longitude116.67823°
Altitude490.329 km
Speed7.619 km/s
Apparent Right ascension06h 48m 30s
Apparent Declination-86° 29' 48"
Sunlit
Object is in daylight
Visualization observer readout
Local Sidereal Time12:03:59
Azimuth184.435° SSW
Elevation-39.155°
Doppler factor1
Orbital elements
Apogee altitude476.396 km
Perigee altitude474.516 km
Semi-major axis6,853.593 km
Eccentricity0.0001371
Inclination53.1621°
RAAN313.9071°
Arg. of periapsis95.0013°
True anomaly265.09875°
Mean anomaly265.1144°
Eccentric anomaly265.10657°
Mean motion3.8253 °/min
BSTAR0.00014256
Orbital period94.11 mins
Loading maneuver chart data...
Loading historical data...
Loading historical data...
Loading historical data...
Loading historical data...
Loading historical data...
Loading historical data...
Loading historical data...

STARLINK-32149 Visibility forecast

Observer location: undefined°, undefined

Span
Click to sort rows by Start time (UTC) header in descending order
Start Az.
Max El. time (UTC)
Max El. Az.
Max El.
End time (UTC)
End Az.
5 mins2024-12-21 23:08:05.214Z175.74° S2024-12-21 23:10:05.214Z131.74° SE22.868°2024-12-21 23:13:05.214Z74.904° E
5 mins2024-12-22 00:46:05.214Z271.407° WNW2024-12-22 00:48:05.214Z335.412° NNW32.012°2024-12-22 00:51:05.214Z35.965° NE
4 mins2024-12-22 05:43:05.214Z346.1° N2024-12-22 05:45:05.214Z37.076° NE24.153°2024-12-22 05:47:05.214Z79.437° E
5 mins2024-12-22 07:21:05.214Z282.646° WNW2024-12-22 07:23:05.214Z212.259° SW33.629°2024-12-22 07:26:05.214Z154.986° SSE
|